Year,Month,Day,Hour,Minute,Value (Times are PST for temperature in C)
2016,08,25,00,00,19.90
2016,08,25,00,01,19.90
2016,08,25,00,02,19.80
2016,08,25,00,03,19.80
2016,08,25,00,04,19.80
2016,08,25,00,05,19.80
2016,08,25,00,06,19.70
2016,08,25,00,07,19.70
2016,08,25,00,08,19.70
2016,08,25,00,09,19.60
2016,08,25,00,10,19.60
2016,08,25,00,11,19.60
2016,08,25,00,12,19.50
2016,08,25,00,13,19.50
2016,08,25,00,14,19.40
2016,08,25,00,15,19.40
2016,08,25,00,16,19.40
2016,08,25,00,17,19.40
2016,08,25,00,18,19.30
2016,08,25,00,19,19.30
2016,08,25,00,20,19.30
2016,08,25,00,21,19.20
2016,08,25,00,22,19.20
2016,08,25,00,23,19.20
2016,08,25,00,24,19.20
2016,08,25,00,25,19.10
2016,08,25,00,26,19.10
2016,08,25,00,27,19.10
2016,08,25,00,28,19.10
2016,08,25,00,29,19.10
2016,08,25,00,30,19.10
2016,08,25,00,31,19.10
2016,08,25,00,32,19.10
2016,08,25,00,33,19.10
2016,08,25,00,34,19.10
2016,08,25,00,35,19.00
2016,08,25,00,36,18.90
2016,08,25,00,37,18.90
2016,08,25,00,38,18.90
2016,08,25,00,39,18.90
2016,08,25,00,40,18.90
2016,08,25,00,41,18.90
2016,08,25,00,42,18.90
2016,08,25,00,43,18.90
2016,08,25,00,44,18.90
2016,08,25,00,45,18.80
2016,08,25,00,46,18.80
2016,08,25,00,47,18.80
2016,08,25,00,48,18.70
2016,08,25,00,49,18.70
2016,08,25,00,50,18.70
2016,08,25,00,51,18.60
2016,08,25,00,52,18.60
2016,08,25,00,53,18.50
2016,08,25,00,54,18.50
2016,08,25,00,55,18.40
2016,08,25,00,56,18.40
2016,08,25,00,57,18.40
2016,08,25,00,58,18.40
2016,08,25,00,59,18.40
2016,08,25,01,00,18.40
2016,08,25,01,01,18.40
2016,08,25,01,02,18.40
2016,08,25,01,03,18.40
2016,08,25,01,04,18.40
2016,08,25,01,05,18.40
2016,08,25,01,06,18.50
2016,08,25,01,07,18.50
2016,08,25,01,08,18.50
2016,08,25,01,09,18.50
2016,08,25,01,10,18.50
2016,08,25,01,11,18.50
2016,08,25,01,12,18.50
2016,08,25,01,13,18.40
2016,08,25,01,14,18.40
2016,08,25,01,15,18.30
2016,08,25,01,16,18.30
2016,08,25,01,17,18.30
2016,08,25,01,18,18.30
2016,08,25,01,19,18.20
2016,08,25,01,20,18.20
2016,08,25,01,21,18.20
2016,08,25,01,22,18.20
2016,08,25,01,23,18.20
2016,08,25,01,24,18.20
2016,08,25,01,25,18.20
2016,08,25,01,26,18.20
2016,08,25,01,27,18.20
2016,08,25,01,28,18.20
2016,08,25,01,29,18.20
2016,08,25,01,30,18.20
2016,08,25,01,31,18.20
2016,08,25,01,32,18.20
2016,08,25,01,33,18.20
2016,08,25,01,34,18.20
2016,08,25,01,35,18.20
2016,08,25,01,36,18.20
2016,08,25,01,37,18.20
2016,08,25,01,38,18.20
2016,08,25,01,39,18.20
2016,08,25,01,40,18.10
2016,08,25,01,41,18.10
2016,08,25,01,42,18.10
2016,08,25,01,43,17.90
2016,08,25,01,44,17.90
2016,08,25,01,45,17.90
2016,08,25,01,46,17.80
2016,08,25,01,47,17.80
2016,08,25,01,48,17.70
2016,08,25,01,49,17.70
2016,08,25,01,50,17.60
2016,08,25,01,51,17.60
2016,08,25,01,52,17.50
2016,08,25,01,53,17.50
2016,08,25,01,54,17.40
2016,08,25,01,55,17.40
2016,08,25,01,56,17.40
2016,08,25,01,57,17.30
2016,08,25,01,58,17.30
2016,08,25,01,59,17.30
2016,08,25,02,00,17.30
2016,08,25,02,01,17.30
2016,08,25,02,02,17.30
2016,08,25,02,03,17.30
2016,08,25,02,04,17.30
2016,08,25,02,05,17.30
2016,08,25,02,06,17.20
2016,08,25,02,07,17.20
2016,08,25,02,08,17.20
2016,08,25,02,09,17.10
2016,08,25,02,10,17.10
2016,08,25,02,11,17.10
2016,08,25,02,12,17.00
2016,08,25,02,13,17.00
2016,08,25,02,14,17.00
2016,08,25,02,15,17.00
2016,08,25,02,16,17.00
2016,08,25,02,17,17.00
2016,08,25,02,18,17.00
2016,08,25,02,19,17.00
2016,08,25,02,20,17.00
2016,08,25,02,21,17.00
2016,08,25,02,22,16.90
2016,08,25,02,23,16.90
2016,08,25,02,24,16.80
2016,08,25,02,25,16.80
2016,08,25,02,26,16.70
2016,08,25,02,27,16.70
2016,08,25,02,28,16.70
2016,08,25,02,29,16.70
2016,08,25,02,30,16.60
2016,08,25,02,31,16.60
2016,08,25,02,32,16.50
2016,08,25,02,33,16.40
2016,08,25,02,34,16.40
2016,08,25,02,35,16.40
2016,08,25,02,36,16.40
2016,08,25,02,37,16.40
2016,08,25,02,38,16.30
2016,08,25,02,39,16.30
2016,08,25,02,40,16.30
2016,08,25,02,41,16.30
2016,08,25,02,42,16.40
2016,08,25,02,43,16.40
2016,08,25,02,44,16.40
2016,08,25,02,45,16.40
2016,08,25,02,46,16.40
2016,08,25,02,47,16.50
2016,08,25,02,48,16.60
2016,08,25,02,49,16.60
2016,08,25,02,50,16.70
2016,08,25,02,51,16.70
2016,08,25,02,52,16.80
2016,08,25,02,53,16.90
2016,08,25,02,54,16.90
2016,08,25,02,55,17.00
2016,08,25,02,56,17.10
2016,08,25,02,57,17.10
2016,08,25,02,58,17.20
2016,08,25,02,59,17.30
2016,08,25,03,00,17.30
2016,08,25,03,01,17.30
2016,08,25,03,02,17.40
2016,08,25,03,03,17.40
2016,08,25,03,04,17.50
2016,08,25,03,05,17.50
2016,08,25,03,06,17.50
2016,08,25,03,07,17.60
2016,08,25,03,08,17.60
2016,08,25,03,09,17.70
2016,08,25,03,10,17.70
2016,08,25,03,11,17.70
2016,08,25,03,12,17.70
2016,08,25,03,13,17.80
2016,08,25,03,14,17.80
2016,08,25,03,15,17.80
2016,08,25,03,16,17.80
2016,08,25,03,17,17.90
2016,08,25,03,18,17.90
2016,08,25,03,19,17.90
2016,08,25,03,20,17.90
2016,08,25,03,21,17.90
2016,08,25,03,22,17.90
2016,08,25,03,23,17.90
2016,08,25,03,24,17.90
2016,08,25,03,25,17.90
2016,08,25,03,26,17.90
2016,08,25,03,27,18.00
2016,08,25,03,28,18.10
2016,08,25,03,29,18.10
2016,08,25,03,30,18.10
2016,08,25,03,31,18.10
2016,08,25,03,32,18.10
2016,08,25,03,33,18.20
2016,08,25,03,34,18.20
2016,08,25,03,35,18.20
2016,08,25,03,36,18.20
2016,08,25,03,37,18.20
2016,08,25,03,38,18.20
2016,08,25,03,39,18.20
2016,08,25,03,40,18.30
2016,08,25,03,41,18.30
2016,08,25,03,42,18.30
2016,08,25,03,43,18.30
2016,08,25,03,44,18.40
2016,08,25,03,45,18.40
2016,08,25,03,46,18.50
2016,08,25,03,47,18.50
2016,08,25,03,48,18.60
2016,08,25,03,49,18.70
2016,08,25,03,50,18.70
2016,08,25,03,51,18.80
2016,08,25,03,52,18.90
2016,08,25,03,53,19.00
2016,08,25,03,54,19.10
2016,08,25,03,55,19.10
2016,08,25,03,56,19.20
2016,08,25,03,57,19.20
2016,08,25,03,58,19.30
2016,08,25,03,59,19.40
2016,08,25,04,00,19.40
2016,08,25,04,01,19.50
2016,08,25,04,02,19.50
2016,08,25,04,03,19.60
2016,08,25,04,04,19.60
2016,08,25,04,05,19.60
2016,08,25,04,06,19.70
2016,08,25,04,07,19.70
2016,08,25,04,08,19.70
2016,08,25,04,09,19.70
2016,08,25,04,10,19.70
2016,08,25,04,11,19.70
2016,08,25,04,12,19.70
2016,08,25,04,13,19.70
2016,08,25,04,14,19.80
2016,08,25,04,15,19.80
2016,08,25,04,16,19.80
2016,08,25,04,17,19.90
2016,08,25,04,18,19.90
2016,08,25,04,19,19.90
2016,08,25,04,20,19.90
2016,08,25,04,21,19.90
2016,08,25,04,22,19.90
2016,08,25,04,23,19.80
2016,08,25,04,24,19.80
2016,08,25,04,25,19.80
2016,08,25,04,26,19.80
2016,08,25,04,27,19.70
2016,08,25,04,28,19.70
2016,08,25,04,29,19.70
2016,08,25,04,30,19.60
2016,08,25,04,31,19.60
2016,08,25,04,32,19.60
2016,08,25,04,33,19.50
2016,08,25,04,34,19.50
2016,08,25,04,35,19.40
2016,08,25,04,36,19.40
2016,08,25,04,37,19.30
2016,08,25,04,38,19.30
2016,08,25,04,39,19.20
2016,08,25,04,40,19.20
2016,08,25,04,41,19.10
2016,08,25,04,42,19.10
2016,08,25,04,43,19.10
2016,08,25,04,44,19.10
2016,08,25,04,45,19.10
2016,08,25,04,46,19.10
2016,08,25,04,47,19.10
2016,08,25,04,48,18.90
2016,08,25,04,49,18.90
2016,08,25,04,50,18.90
2016,08,25,04,51,18.90
2016,08,25,04,52,18.90
2016,08,25,04,53,18.90
2016,08,25,04,54,18.90
2016,08,25,04,55,18.90
2016,08,25,04,56,19.00
2016,08,25,04,57,19.10
2016,08,25,04,58,19.10
2016,08,25,04,59,19.10
2016,08,25,05,00,19.10
2016,08,25,05,01,19.10
2016,08,25,05,02,19.10
2016,08,25,05,03,19.10
2016,08,25,05,04,19.10
2016,08,25,05,05,19.10
2016,08,25,05,06,19.00
2016,08,25,05,07,18.90
2016,08,25,05,08,18.90
2016,08,25,05,09,18.90
2016,08,25,05,10,18.90
2016,08,25,05,11,18.80
2016,08,25,05,12,18.80
2016,08,25,05,13,18.70
2016,08,25,05,14,18.70
2016,08,25,05,15,18.70
2016,08,25,05,16,18.60
2016,08,25,05,17,18.60
2016,08,25,05,18,18.60
2016,08,25,05,19,18.50
2016,08,25,05,20,18.50
2016,08,25,05,21,18.50
2016,08,25,05,22,18.50
2016,08,25,05,23,18.40
2016,08,25,05,24,18.40
2016,08,25,05,25,18.40
2016,08,25,05,26,18.30
2016,08,25,05,27,18.30
2016,08,25,05,28,18.30
2016,08,25,05,29,18.20
2016,08,25,05,30,18.20
2016,08,25,05,31,18.20
2016,08,25,05,32,18.20
2016,08,25,05,33,18.20
2016,08,25,05,34,18.10
2016,08,25,05,35,18.10
2016,08,25,05,36,18.10
2016,08,25,05,37,18.00
2016,08,25,05,38,17.90
2016,08,25,05,39,17.90
2016,08,25,05,40,17.90
2016,08,25,05,41,17.80
2016,08,25,05,42,17.80
2016,08,25,05,43,17.70
2016,08,25,05,44,17.70
2016,08,25,05,45,17.60
2016,08,25,05,46,17.60
2016,08,25,05,47,17.60
2016,08,25,05,48,17.50
2016,08,25,05,49,17.50
2016,08,25,05,50,17.50
2016,08,25,05,51,17.50
2016,08,25,05,52,17.40
2016,08,25,05,53,17.40
2016,08,25,05,54,17.40
2016,08,25,05,55,17.40
2016,08,25,05,56,17.40
2016,08,25,05,57,17.30
2016,08,25,05,58,17.30
2016,08,25,05,59,17.30
2016,08,25,06,00,17.30
2016,08,25,06,01,17.30
2016,08,25,06,02,17.30
2016,08,25,06,03,17.30
2016,08,25,06,04,17.20
2016,08,25,06,05,17.20
2016,08,25,06,06,17.20
2016,08,25,06,07,17.20
2016,08,25,06,08,17.10
2016,08,25,06,09,17.10
2016,08,25,06,10,17.10
2016,08,25,06,11,17.10
2016,08,25,06,12,17.10
2016,08,25,06,13,17.10
2016,08,25,06,14,17.10
2016,08,25,06,15,17.00
2016,08,25,06,16,17.00
2016,08,25,06,17,17.00
2016,08,25,06,18,17.00
2016,08,25,06,19,17.00
2016,08,25,06,20,17.00
2016,08,25,06,21,17.00
2016,08,25,06,22,17.00
2016,08,25,06,23,17.00
2016,08,25,06,24,17.00
2016,08,25,06,25,17.00
2016,08,25,06,26,17.00
2016,08,25,06,27,17.00
2016,08,25,06,28,17.00
2016,08,25,06,29,17.00
2016,08,25,06,30,17.00
2016,08,25,06,31,17.00
2016,08,25,06,32,16.90
2016,08,25,06,33,16.90
2016,08,25,06,34,16.90
2016,08,25,06,35,16.90
2016,08,25,06,36,16.90
2016,08,25,06,37,16.90
2016,08,25,06,38,16.80
2016,08,25,06,39,16.80
2016,08,25,06,40,16.80
2016,08,25,06,41,16.70
2016,08,25,06,42,16.70
2016,08,25,06,43,16.70
2016,08,25,06,44,16.70
2016,08,25,06,45,16.70
2016,08,25,06,46,16.70
2016,08,25,06,47,16.70
2016,08,25,06,48,16.70
2016,08,25,06,49,16.70
2016,08,25,06,50,16.70
2016,08,25,06,51,16.70
2016,08,25,06,52,16.70
2016,08,25,06,53,16.70
2016,08,25,06,54,16.70
2016,08,25,06,55,16.70
2016,08,25,06,56,16.70
2016,08,25,06,57,16.70
2016,08,25,06,58,16.70
2016,08,25,06,59,16.80
2016,08,25,07,00,16.80
2016,08,25,07,01,16.90
2016,08,25,07,02,16.90
2016,08,25,07,03,17.00
2016,08,25,07,04,17.00
2016,08,25,07,05,17.10
2016,08,25,07,06,17.10
2016,08,25,07,07,17.10
2016,08,25,07,08,17.10
2016,08,25,07,09,17.10
2016,08,25,07,10,17.00
2016,08,25,07,11,17.00
2016,08,25,07,12,16.90
2016,08,25,07,13,16.80
2016,08,25,07,14,16.80
2016,08,25,07,15,16.70
2016,08,25,07,16,16.70
2016,08,25,07,17,16.70
2016,08,25,07,18,16.60
2016,08,25,07,19,16.60
2016,08,25,07,20,16.60
2016,08,25,07,21,16.60
2016,08,25,07,22,16.60
2016,08,25,07,23,16.60
2016,08,25,07,24,16.60
2016,08,25,07,25,16.60
2016,08,25,07,26,16.60
2016,08,25,07,27,16.60
2016,08,25,07,28,16.60
2016,08,25,07,29,16.70
2016,08,25,07,30,16.80
2016,08,25,07,31,16.80
2016,08,25,07,32,16.90
2016,08,25,07,33,16.90
2016,08,25,07,34,16.90
2016,08,25,07,35,17.00
2016,08,25,07,36,17.00
2016,08,25,07,37,17.00
2016,08,25,07,38,17.10
2016,08,25,07,39,17.10
2016,08,25,07,40,17.20
2016,08,25,07,41,17.20
2016,08,25,07,42,17.20
2016,08,25,07,43,17.20
2016,08,25,07,44,17.20
2016,08,25,07,45,17.20
2016,08,25,07,46,17.30
2016,08,25,07,47,17.30
2016,08,25,07,48,17.30
2016,08,25,07,49,17.40
2016,08,25,07,50,17.50
2016,08,25,07,51,17.50
2016,08,25,07,52,17.60
2016,08,25,07,53,17.70
2016,08,25,07,54,17.80
2016,08,25,07,55,17.80
2016,08,25,07,56,17.90
2016,08,25,07,57,17.90
2016,08,25,07,58,17.90
2016,08,25,07,59,17.90
2016,08,25,08,00,17.90
2016,08,25,08,01,17.90
2016,08,25,08,02,17.90
2016,08,25,08,03,17.90
2016,08,25,08,04,17.90
2016,08,25,08,05,18.10
2016,08,25,08,06,18.10
2016,08,25,08,07,18.20
2016,08,25,08,08,18.20
2016,08,25,08,09,18.20
2016,08,25,08,10,18.20
2016,08,25,08,11,18.20
2016,08,25,08,12,18.20
2016,08,25,08,13,18.20
2016,08,25,08,14,18.20
2016,08,25,08,15,18.20
2016,08,25,08,16,18.20
2016,08,25,08,17,18.20
2016,08,25,08,18,18.20
2016,08,25,08,19,18.20
2016,08,25,08,20,18.20
2016,08,25,08,21,18.30
2016,08,25,08,22,18.40
2016,08,25,08,23,18.50
2016,08,25,08,24,18.50
2016,08,25,08,25,18.60
2016,08,25,08,26,18.70
2016,08,25,08,27,18.80
2016,08,25,08,28,18.90
2016,08,25,08,29,18.90
2016,08,25,08,30,19.00
2016,08,25,08,31,19.10
2016,08,25,08,32,19.20
2016,08,25,08,33,19.30
2016,08,25,08,34,19.50
2016,08,25,08,35,19.70
2016,08,25,08,36,19.80
2016,08,25,08,37,20.00
2016,08,25,08,38,20.10
2016,08,25,08,39,20.30
2016,08,25,08,40,20.50
2016,08,25,08,41,20.60
2016,08,25,08,42,20.80
2016,08,25,08,43,20.90
2016,08,25,08,44,21.10
2016,08,25,08,45,21.20
2016,08,25,08,46,21.30
2016,08,25,08,47,21.40
2016,08,25,08,48,21.30
2016,08,25,08,49,21.10
2016,08,25,08,50,20.80
2016,08,25,08,51,20.50
2016,08,25,08,52,20.30
2016,08,25,08,53,20.10
2016,08,25,08,54,19.90
2016,08,25,08,55,19.80
2016,08,25,08,56,19.80
2016,08,25,08,57,19.60
2016,08,25,08,58,19.50
2016,08,25,08,59,19.40
2016,08,25,09,00,19.40
2016,08,25,09,01,19.30
2016,08,25,09,02,19.30
2016,08,25,09,03,19.20
2016,08,25,09,04,19.20
2016,08,25,09,05,19.10
2016,08,25,09,06,19.10
2016,08,25,09,07,19.20
2016,08,25,09,08,19.20
2016,08,25,09,09,19.30
2016,08,25,09,10,19.40
2016,08,25,09,11,19.50
2016,08,25,09,12,19.60
2016,08,25,09,13,19.70
2016,08,25,09,14,19.90
2016,08,25,09,15,20.10
2016,08,25,09,16,20.20
2016,08,25,09,17,20.40
2016,08,25,09,18,20.50
2016,08,25,09,19,20.70
2016,08,25,09,20,20.80
2016,08,25,09,21,20.90
2016,08,25,09,22,21.00
2016,08,25,09,23,21.10
2016,08,25,09,24,21.20
2016,08,25,09,25,21.30
2016,08,25,09,26,21.30
2016,08,25,09,27,21.30
2016,08,25,09,28,21.40
2016,08,25,09,29,21.40
2016,08,25,09,30,21.40
2016,08,25,09,31,21.40
2016,08,25,09,32,21.40
2016,08,25,09,33,21.40
2016,08,25,09,34,21.40
2016,08,25,09,35,21.50
2016,08,25,09,36,21.60
2016,08,25,09,37,21.60
2016,08,25,09,38,21.60
2016,08,25,09,39,21.70
2016,08,25,09,40,21.80
2016,08,25,09,41,21.90
2016,08,25,09,42,22.00
2016,08,25,09,43,22.10
2016,08,25,09,44,22.20
2016,08,25,09,45,22.30
2016,08,25,09,46,22.40
2016,08,25,09,47,22.50
2016,08,25,09,48,22.60
2016,08,25,09,49,22.70
2016,08,25,09,50,22.70
2016,08,25,09,51,22.80
2016,08,25,09,52,22.90
2016,08,25,09,53,22.90
2016,08,25,09,54,22.90
2016,08,25,09,55,22.90
2016,08,25,09,56,22.90
2016,08,25,09,57,22.90
2016,08,25,09,58,22.90
2016,08,25,09,59,22.90
2016,08,25,10,00,22.90
2016,08,25,10,01,22.90
2016,08,25,10,02,22.90
2016,08,25,10,03,22.90
2016,08,25,10,04,23.00
2016,08,25,10,05,23.00
2016,08,25,10,06,23.10
2016,08,25,10,07,23.10
2016,08,25,10,08,23.10
2016,08,25,10,09,23.20
2016,08,25,10,10,23.20
2016,08,25,10,11,23.20
2016,08,25,10,12,23.20
2016,08,25,10,13,23.30
2016,08,25,10,14,23.30
2016,08,25,10,15,23.30
2016,08,25,10,16,23.30
2016,08,25,10,17,23.30
2016,08,25,10,18,23.30
2016,08,25,10,19,23.30
2016,08,25,10,20,23.30
2016,08,25,10,21,23.30
2016,08,25,10,22,23.20
2016,08,25,10,23,23.20
2016,08,25,10,24,23.20
2016,08,25,10,25,23.30
2016,08,25,10,26,23.30
2016,08,25,10,27,23.30
2016,08,25,10,28,23.30
2016,08,25,10,29,23.40
2016,08,25,10,30,23.40
2016,08,25,10,31,23.40
2016,08,25,10,32,23.50
2016,08,25,10,33,23.60
2016,08,25,10,34,23.70
2016,08,25,10,35,23.70
2016,08,25,10,36,23.70
2016,08,25,10,37,23.70
2016,08,25,10,38,23.70
2016,08,25,10,39,23.70
2016,08,25,10,40,23.70
2016,08,25,10,41,23.70
2016,08,25,10,42,23.80
2016,08,25,10,43,23.90
2016,08,25,10,44,23.90
2016,08,25,10,45,23.90
2016,08,25,10,46,24.00
2016,08,25,10,47,24.10
2016,08,25,10,48,24.10
2016,08,25,10,49,24.10
2016,08,25,10,50,24.20
2016,08,25,10,51,24.20
2016,08,25,10,52,24.30
2016,08,25,10,53,24.30
2016,08,25,10,54,24.40
2016,08,25,10,55,24.50
2016,08,25,10,56,24.60
2016,08,25,10,57,24.50
2016,08,25,10,58,24.50
2016,08,25,10,59,24.50
2016,08,25,11,00,24.50
2016,08,25,11,01,24.50
2016,08,25,11,02,24.50
2016,08,25,11,03,24.50
2016,08,25,11,04,24.50
2016,08,25,11,05,24.40
2016,08,25,11,06,24.20
2016,08,25,11,07,24.10
2016,08,25,11,08,24.00
2016,08,25,11,09,23.90
2016,08,25,11,10,23.80
2016,08,25,11,11,23.80
2016,08,25,11,12,23.80
2016,08,25,11,13,23.80
2016,08,25,11,14,23.80
2016,08,25,11,15,23.80
2016,08,25,11,16,23.90
2016,08,25,11,17,24.00
2016,08,25,11,18,24.10
2016,08,25,11,19,24.10
2016,08,25,11,20,24.10
2016,08,25,11,21,24.10
2016,08,25,11,22,24.10
2016,08,25,11,23,24.20
2016,08,25,11,24,24.20
2016,08,25,11,25,24.20
2016,08,25,11,26,24.30
2016,08,25,11,27,24.30
2016,08,25,11,28,24.40
2016,08,25,11,29,24.50
2016,08,25,11,30,24.50
2016,08,25,11,31,24.50
2016,08,25,11,32,24.50
2016,08,25,11,33,24.60
2016,08,25,11,34,24.50
2016,08,25,11,35,24.50
2016,08,25,11,36,24.50
2016,08,25,11,37,24.50
2016,08,25,11,38,24.40
2016,08,25,11,39,24.30
2016,08,25,11,40,24.30
2016,08,25,11,41,24.40
2016,08,25,11,42,24.50
2016,08,25,11,43,24.50
2016,08,25,11,44,24.50
2016,08,25,11,45,24.50
2016,08,25,11,46,24.60
2016,08,25,11,47,24.60
2016,08,25,11,48,24.50
2016,08,25,11,49,24.50
2016,08,25,11,50,24.40
2016,08,25,11,51,24.40
2016,08,25,11,52,24.40
2016,08,25,11,53,24.50
2016,08,25,11,54,24.60
2016,08,25,11,55,24.60
2016,08,25,11,56,24.70
2016,08,25,11,57,24.70
2016,08,25,11,58,24.80
2016,08,25,11,59,24.80
2016,08,25,12,00,24.90
2016,08,25,12,01,24.90
2016,08,25,12,02,24.90
2016,08,25,12,03,24.90
2016,08,25,12,04,24.80
2016,08,25,12,05,24.80
2016,08,25,12,06,24.80
2016,08,25,12,07,24.70
2016,08,25,12,08,24.70
2016,08,25,12,09,24.70
2016,08,25,12,10,24.70
2016,08,25,12,11,24.80
2016,08,25,12,12,24.70
2016,08,25,12,13,24.70
2016,08,25,12,14,24.70
2016,08,25,12,15,24.70
2016,08,25,12,16,24.70
2016,08,25,12,17,24.80
2016,08,25,12,18,24.80
2016,08,25,12,19,24.80
2016,08,25,12,20,24.90
2016,08,25,12,21,24.90
2016,08,25,12,22,25.00
2016,08,25,12,23,25.10
2016,08,25,12,24,25.10
2016,08,25,12,25,25.10
2016,08,25,12,26,25.10
2016,08,25,12,27,25.20
2016,08,25,12,28,25.20
2016,08,25,12,29,25.20
2016,08,25,12,30,25.30
2016,08,25,12,31,25.30
2016,08,25,12,32,25.40
2016,08,25,12,33,25.40
2016,08,25,12,34,25.50
2016,08,25,12,35,25.50
2016,08,25,12,36,25.50
2016,08,25,12,37,25.50
2016,08,25,12,38,25.40
2016,08,25,12,39,25.30
2016,08,25,12,40,25.20
2016,08,25,12,41,25.20
2016,08,25,12,42,25.20
2016,08,25,12,43,25.10
2016,08,25,12,44,25.10
2016,08,25,12,45,25.10
2016,08,25,12,46,25.20
2016,08,25,12,47,25.20
2016,08,25,12,48,25.10
2016,08,25,12,49,25.10
2016,08,25,12,50,25.10
2016,08,25,12,51,25.10
2016,08,25,12,52,25.20
2016,08,25,12,53,25.20
2016,08,25,12,54,25.30
2016,08,25,12,55,25.30
2016,08,25,12,56,25.40
2016,08,25,12,57,25.50
2016,08,25,12,58,25.50
2016,08,25,12,59,25.50
2016,08,25,13,00,25.60
2016,08,25,13,01,25.60
2016,08,25,13,02,25.60
2016,08,25,13,03,25.50
2016,08,25,13,04,25.50
2016,08,25,13,05,25.50
2016,08,25,13,06,25.50
2016,08,25,13,07,25.50
2016,08,25,13,08,25.50
2016,08,25,13,09,25.60
2016,08,25,13,10,25.60
2016,08,25,13,11,25.60
2016,08,25,13,12,25.50
2016,08,25,13,13,25.60
2016,08,25,13,14,25.60
2016,08,25,13,15,25.60
2016,08,25,13,16,25.50
2016,08,25,13,17,25.50
2016,08,25,13,18,25.50
2016,08,25,13,19,25.50
2016,08,25,13,20,25.60
2016,08,25,13,21,25.60
2016,08,25,13,22,25.70
2016,08,25,13,23,25.70
2016,08,25,13,24,25.60
2016,08,25,13,25,25.60
2016,08,25,13,26,25.60
2016,08,25,13,27,25.60
2016,08,25,13,28,25.50
2016,08,25,13,29,25.40
2016,08,25,13,30,25.40
2016,08,25,13,31,25.50
2016,08,25,13,32,25.50
2016,08,25,13,33,25.60
2016,08,25,13,34,25.50
2016,08,25,13,35,25.60
2016,08,25,13,36,25.60
2016,08,25,13,37,25.70
2016,08,25,13,38,25.70
2016,08,25,13,39,25.80
2016,08,25,13,40,25.80
2016,08,25,13,41,25.80
2016,08,25,13,42,25.80
2016,08,25,13,43,25.70
2016,08,25,13,44,25.70
2016,08,25,13,45,25.70
2016,08,25,13,46,25.70
2016,08,25,13,47,25.70
2016,08,25,13,48,25.70
2016,08,25,13,49,25.80
2016,08,25,13,50,25.80
2016,08,25,13,51,25.90
2016,08,25,13,52,25.90
2016,08,25,13,53,25.90
2016,08,25,13,54,25.90
2016,08,25,13,55,25.90
2016,08,25,13,56,25.80
2016,08,25,13,57,25.80
2016,08,25,13,58,25.80
2016,08,25,13,59,25.60
2016,08,25,14,00,25.50
2016,08,25,14,01,25.40
2016,08,25,14,02,25.30
2016,08,25,14,03,25.30
2016,08,25,14,04,25.20
2016,08,25,14,05,25.20
2016,08,25,14,06,25.20
2016,08,25,14,07,25.30
2016,08,25,14,08,25.40
2016,08,25,14,09,25.40
2016,08,25,14,10,25.40
2016,08,25,14,11,25.30
2016,08,25,14,12,25.30
2016,08,25,14,13,25.20
2016,08,25,14,14,25.20
2016,08,25,14,15,25.20
2016,08,25,14,16,25.20
2016,08,25,14,17,25.10
2016,08,25,14,18,25.00
2016,08,25,14,19,25.00
2016,08,25,14,20,25.00
2016,08,25,14,21,25.10
2016,08,25,14,22,25.10
2016,08,25,14,23,25.20
2016,08,25,14,24,25.20
2016,08,25,14,25,25.20
2016,08,25,14,26,25.20
2016,08,25,14,27,25.20
2016,08,25,14,28,25.20
2016,08,25,14,29,25.20
2016,08,25,14,30,25.20
2016,08,25,14,31,25.20
2016,08,25,14,32,25.30
2016,08,25,14,33,25.30
2016,08,25,14,34,25.40
2016,08,25,14,35,25.40
2016,08,25,14,36,25.50
2016,08,25,14,37,25.50
2016,08,25,14,38,25.50
2016,08,25,14,39,25.40
2016,08,25,14,40,25.40
2016,08,25,14,41,25.40
2016,08,25,14,42,25.40
2016,08,25,14,43,25.40
2016,08,25,14,44,25.40
2016,08,25,14,45,25.50
2016,08,25,14,46,25.50
2016,08,25,14,47,25.60
2016,08,25,14,48,25.70
2016,08,25,14,49,25.70
2016,08,25,14,50,25.70
2016,08,25,14,51,25.70
2016,08,25,14,52,25.70
2016,08,25,14,53,25.80
2016,08,25,14,54,25.80
2016,08,25,14,55,25.80
2016,08,25,14,56,25.80
2016,08,25,14,57,25.90
2016,08,25,14,58,25.90
2016,08,25,14,59,25.90
2016,08,25,15,00,25.90
2016,08,25,15,01,26.00
2016,08,25,15,02,26.00
2016,08,25,15,03,26.00
2016,08,25,15,04,26.10
2016,08,25,15,05,26.20
2016,08,25,15,06,26.20
2016,08,25,15,07,26.20
2016,08,25,15,08,26.20
2016,08,25,15,09,26.30
2016,08,25,15,10,26.30
2016,08,25,15,11,26.40
2016,08,25,15,12,26.50
2016,08,25,15,13,26.60
2016,08,25,15,14,26.60
2016,08,25,15,15,26.70
2016,08,25,15,16,26.80
2016,08,25,15,17,26.90
2016,08,25,15,18,27.10
2016,08,25,15,19,27.10
2016,08,25,15,20,27.20
2016,08,25,15,21,27.20
2016,08,25,15,22,27.30
2016,08,25,15,23,27.30
2016,08,25,15,24,27.40
2016,08,25,15,25,27.50
2016,08,25,15,26,27.60
2016,08,25,15,27,27.60
2016,08,25,15,28,27.60
2016,08,25,15,29,27.60
2016,08,25,15,30,27.50
2016,08,25,15,31,27.40
2016,08,25,15,32,27.40
2016,08,25,15,33,27.40
2016,08,25,15,34,27.40
2016,08,25,15,35,27.50
2016,08,25,15,36,27.60
2016,08,25,15,37,27.70
2016,08,25,15,38,27.70
2016,08,25,15,39,27.70
2016,08,25,15,40,27.70
2016,08,25,15,41,27.70
2016,08,25,15,42,27.70
2016,08,25,15,43,27.80
2016,08,25,15,44,27.80
2016,08,25,15,45,27.70
2016,08,25,15,46,27.70
2016,08,25,15,47,27.70
2016,08,25,15,48,27.70
2016,08,25,15,49,27.70
2016,08,25,15,50,27.80
2016,08,25,15,51,27.80
2016,08,25,15,52,27.80
2016,08,25,15,53,27.90
2016,08,25,15,54,27.90
2016,08,25,15,55,27.90
2016,08,25,15,56,27.90
2016,08,25,15,57,27.90
2016,08,25,15,58,27.90
2016,08,25,15,59,27.90
2016,08,25,16,00,27.90
2016,08,25,16,01,27.90
2016,08,25,16,02,28.00
2016,08,25,16,03,28.00
2016,08,25,16,04,28.00
2016,08,25,16,05,28.10
2016,08,25,16,06,28.00
2016,08,25,16,07,28.10
2016,08,25,16,08,28.10
2016,08,25,16,09,28.10
2016,08,25,16,10,28.10
2016,08,25,16,11,28.20
2016,08,25,16,12,28.30
2016,08,25,16,13,28.30
2016,08,25,16,14,28.30
2016,08,25,16,15,28.40
2016,08,25,16,16,28.40
2016,08,25,16,17,28.40
2016,08,25,16,18,28.50
2016,08,25,16,19,28.60
2016,08,25,16,20,28.60
2016,08,25,16,21,28.60
2016,08,25,16,22,28.60
2016,08,25,16,23,28.60
2016,08,25,16,24,28.60
2016,08,25,16,25,28.60
2016,08,25,16,26,28.60
2016,08,25,16,27,28.50
2016,08,25,16,28,28.50
2016,08,25,16,29,28.60
2016,08,25,16,30,28.60
2016,08,25,16,31,28.60
2016,08,25,16,32,28.70
2016,08,25,16,33,28.70
2016,08,25,16,34,28.80
2016,08,25,16,35,28.80
2016,08,25,16,36,28.80
2016,08,25,16,37,28.80
2016,08,25,16,38,28.80
2016,08,25,16,39,28.90
2016,08,25,16,40,28.90
2016,08,25,16,41,28.90
2016,08,25,16,42,28.90
2016,08,25,16,43,28.90
2016,08,25,16,44,29.00
2016,08,25,16,45,29.00
2016,08,25,16,46,28.90
2016,08,25,16,47,28.90
2016,08,25,16,48,28.90
2016,08,25,16,49,28.90
2016,08,25,16,50,28.90
2016,08,25,16,51,28.90
2016,08,25,16,52,28.90
2016,08,25,16,53,28.90
2016,08,25,16,54,28.90
2016,08,25,16,55,28.90
2016,08,25,16,56,28.90
2016,08,25,16,57,29.00
2016,08,25,16,58,29.10
2016,08,25,16,59,29.10
2016,08,25,17,00,29.10
2016,08,25,17,01,29.00
2016,08,25,17,02,28.90
2016,08,25,17,03,28.90
2016,08,25,17,04,29.00
2016,08,25,17,05,29.10
2016,08,25,17,06,29.10
2016,08,25,17,07,29.20
2016,08,25,17,08,29.20
2016,08,25,17,09,29.20
2016,08,25,17,10,29.20
2016,08,25,17,11,29.30
2016,08,25,17,12,29.30
2016,08,25,17,13,29.20
2016,08,25,17,14,29.00
2016,08,25,17,15,28.90
2016,08,25,17,16,28.90
2016,08,25,17,17,28.80
2016,08,25,17,18,28.70
2016,08,25,17,19,28.70